This demonstration page uses our WeatherBlox Daily Observations layout. Learn more.

Hourly Observations for March 21, 2020

Temp ( °F °C ) Dew Point ( °F °C ) Humidity (%) Winds ( mph kmh ) Pressure ( in mb ) Visibility ( mi km ) Precip ( " mm )
12:15 am 00:15 Partly Cloudy 64 18 55 13 73 73 NNW 7 11 30.02 1017 10 16.0934 0 0
12:35 am 00:35 Clear 64 18 55 13 73 73 NNW 8 13 30.02 1017 10 16.0934 0 0
12:55 am 00:55 Clear 64 18 55 13 73 73 NNW 9 15 30.02 1017 10 16.0934 0 0
1:15 am 01:15 Mostly Cloudy 64 18 55 13 73 73 NNW 9 15 30.03 1017 10 16.0934 0 0
1:35 am 01:35 Mostly Cloudy 64 18 55 13 73 73 N 7 11 30.04 1017 10 16.0934 0 0
1:55 am 01:55 Cloudy 63 17 52 11 68 68 N 18 30 30.08 1018 10 16.0934 0 0
2:15 am 02:15 Cloudy 61 16 52 11 72 72 N 7 11 30.1 1019 10 16.0934 0 0
2:35 am 02:35 Cloudy 61 16 48 9 63 63 N 20 31 30.1 1019 10 16.0934 0 0
2:55 am 02:55 Mostly Cloudy 59 15 46 8 63 63 N 16 26 30.11 1020 10 16.0934 0 0
3:15 am 03:15 Cloudy 59 15 46 8 63 63 N 16 26 30.12 1020 10 16.0934 0 0
3:35 am 03:35 Cloudy 57 14 46 8 67 67 NNE 10 17 30.13 1020 10 16.0934 0 0
3:55 am 03:55 Cloudy 54 12 46 8 77 77 N 10 17 30.13 1020 10 16.0934 0 0
4:15 am 04:15 Cloudy 54 12 45 7 72 72 N 18 30 30.14 1021 10 16.0934 0 0
4:35 am 04:35 Partly Cloudy 52 11 43 6 72 72 N 12 19 30.15 1021 10 16.0934 0 0
4:55 am 04:55 Clear 52 11 41 5 67 67 N 18 30 30.16 1021 10 16.0934 0 0
5:15 am 05:15 Mostly Cloudy 50 10 37 3 62 62 N 17 28 30.18 1022 10 16.0934 0 0
5:35 am 05:35 Mostly Cloudy 50 10 37 3 62 62 N 18 30 30.2 1023 10 16.0934 0 0
5:55 am 05:55 Partly Cloudy 50 10 37 3 62 62 N 16 26 30.2 1023 10 16.0934 0 0
6:15 am 06:15 Mostly Cloudy 48 9 37 3 66 66 N 15 24 30.22 1023 10 16.0934 0 0
6:35 am 06:35 Cloudy 48 9 37 3 66 66 N 14 22 30.22 1023 10 16.0934 0 0
6:55 am 06:55 Cloudy 46 8 36 2 66 66 N 16 26 30.24 1024 10 16.0934 0 0
7:15 am 07:15 Cloudy 46 8 36 2 66 66 N 16 26 30.24 1024 10 16.0934 0 0
7:35 am 07:35 Partly Cloudy 46 8 36 2 66 66 N 13 20 30.26 1025 10 16.0934 0 0
7:55 am 07:55 Sunny 45 7 34 1 66 66 N 12 19 30.28 1025 10 16.0934 0 0
8:15 am 08:15 Mostly Cloudy 45 7 34 1 66 66 N 15 24 30.29 1026 10 16.0934 0 0
8:35 am 08:35 Cloudy 45 7 34 1 66 66 N 15 24 30.31 1026 10 16.0934 0 0
8:55 am 08:55 Mostly Cloudy 46 8 34 1 62 62 N 15 24 30.32 1027 10 16.0934 0 0
9:15 am 09:15 Cloudy 45 7 34 1 66 66 N 9 15 30.34 1027 10 16.0934 0 0
9:35 am 09:35 Cloudy 45 7 32 0 61 61 N 20 31 30.33 1027 10 16.0934 0 0
9:55 am 09:55 Cloudy 45 7 32 0 61 61 N 13 20 30.34 1027 10 16.0934 0 0
10:15 am 10:15 Cloudy 45 7 32 0 61 61 N 15 24 30.34 1027 10 16.0934 0 0
10:35 am 10:35 Cloudy 45 7 32 0 61 61 N 15 24 30.36 1028 10 16.0934 0 0
10:55 am 10:55 Cloudy 45 7 32 0 61 61 N 10 17 30.36 1028 10 16.0934 0 0
11:15 am 11:15 Cloudy 45 7 32 0 61 61 N 15 24 30.37 1028 10 16.0934 0 0
11:35 am 11:35 Cloudy 45 7 32 0 61 61 N 14 22 30.38 1029 10 16.0934 0 0
11:55 am 11:55 Cloudy 45 7 32 0 61 61 N 10 17 30.38 1029 10 16.0934 0 0
12:15 pm 12:15 Cloudy 45 7 32 0 61 61 N 8 13 30.39 1029 10 16.0934 0 0
12:35 pm 12:35 Cloudy 45 7 32 0 61 61 N 10 17 30.39 1029 10 16.0934 0 0
12:55 pm 12:55 Cloudy 45 7 32 0 61 61 N 8 13 30.39 1029 10 16.0934 0 0
1:15 pm 13:15 Cloudy 45 7 32 0 61 61 NNW 7 11 30.39 1029 10 16.0934 0 0
1:35 pm 13:35 Cloudy 45 7 32 0 61 61 N 9 15 30.39 1029 10 16.0934 0 0
1:55 pm 13:55 Cloudy 46 8 32 0 57 57 NNW 12 19 30.38 1029 10 16.0934 0 0
2:15 pm 14:15 Cloudy 46 8 32 0 57 57 N 9 15 30.36 1028 10 16.0934 0 0
2:35 pm 14:35 Cloudy 46 8 32 0 57 57 N 6 9 30.36 1028 10 16.0934 0 0
2:55 pm 14:55 Cloudy 50 10 32 0 50 50 N 10 17 30.36 1028 10 16.0934 0 0
3:15 pm 15:15 Cloudy 48 9 32 0 54 54 N 8 13 30.36 1028 10 16.0934 0 0
3:35 pm 15:35 Cloudy 48 9 32 0 54 54 N 9 15 30.36 1028 10 16.0934 0 0
3:55 pm 15:55 Cloudy 48 9 30 -1 50 50 NNW 5 7 30.34 1027 10 16.0934 0 0
4:15 pm 16:15 Cloudy 50 10 32 0 50 50 NNW 7 11 30.34 1027 10 16.0934 0 0
4:35 pm 16:35 Cloudy 50 10 32 0 50 50 NW 5 7 30.34 1027 10 16.0934 0 0
4:55 pm 16:55 Cloudy 50 10 32 0 50 50 NNE 6 9 30.34 1027 10 16.0934 0 0
5:15 pm 17:15 Cloudy 50 10 32 0 50 50 N 5 7 30.34 1027 10 16.0934 0 0
5:35 pm 17:35 Cloudy 50 10 32 0 50 50 NNE 6 9 30.35 1028 10 16.0934 0 0
5:55 pm 17:55 Cloudy 50 10 32 0 50 50 NNW 8 13 30.36 1028 10 16.0934 0 0
6:15 pm 18:15 Cloudy 50 10 32 0 50 50 NW 9 15 30.36 1028 10 16.0934 0 0
6:35 pm 18:35 Cloudy 50 10 32 0 50 50 N 6 9 30.36 1028 10 16.0934 0 0
6:55 pm 18:55 Cloudy 48 9 32 0 54 54 NNW 3 6 30.38 1029 10 16.0934 0 0
7:15 pm 19:15 Cloudy 48 9 32 0 54 54 NNW 6 9 30.38 1029 10 16.0934 0 0
7:35 pm 19:35 Cloudy 48 9 32 0 54 54 NNW 6 9 30.38 1029 10 16.0934 0 0
7:55 pm 19:55 Cloudy 48 9 32 0 54 54 NNW 6 9 30.39 1029 10 16.0934 0 0
8:15 pm 20:15 Cloudy 48 9 32 0 54 54 N 6 9 30.39 1029 10 16.0934 0 0
8:35 pm 20:35 Cloudy 46 8 32 0 57 57 NE 6 9 30.4 1029 10 16.0934 0 0
8:55 pm 20:55 Cloudy 46 8 32 0 57 57 NNE 5 7 30.42 1030 10 16.0934 0 0
9:15 pm 21:15 Cloudy 46 8 32 0 57 57 NE 9 15 30.42 1030 10 16.0934 0 0
9:35 pm 21:35 Cloudy 46 8 32 0 57 57 NNE 10 17 30.42 1030 10 16.0934 0 0
9:55 pm 21:55 Cloudy 46 8 30 -1 53 53 NE 6 9 30.43 1030 10 16.0934 0 0
10:15 pm 22:15 Cloudy 45 7 28 -2 53 53 NNE 8 13 30.44 1031 10 16.0934 0 0
10:35 pm 22:35 Cloudy 45 7 28 -2 53 53 NNE 5 7 30.45 1031 10 16.0934 0 0
10:55 pm 22:55 Cloudy 45 7 28 -2 53 53 N 7 11 30.45 1031 10 16.0934 0 0
11:15 pm 23:15 Cloudy 45 7 28 -2 53 53 NNE 6 9 30.46 1032 10 16.0934 0 0
11:35 pm 23:35 Cloudy 45 7 28 -2 53 53 N 5 7 30.46 1032 10 16.0934 0 0
11:55 pm 23:55 Cloudy 43 6 28 -2 57 57 N 6 9 30.47 1032 10 16.0934 0 0

Powered by AerisWeather